When you browse on this site, cookies collect data to enhance your experience and personalize the content and advertising you see.
Visit our Privacy Policy to learn more. By continuing to use the site, you agree to this use of cookies and data.
  • In Czech Republic
  • List of Countries
  • For 7 days
  • Water Temperature
  • Satellite Maps
  • Weather Map
  • Weather Widgets
  • user-avatar
    Login

    Hourly Weather Bolehov

    Today, 18 December, Tuesday

    Time Temperature Precipitation Wind Pressure Humidity
    00:00 -2°C° 0.1 mm 1 mps 733 mmHg 95%
    01:00 -3°C° 0.1 mm 1 mps 734 mmHg 94%
    02:00 -3°C° 0 mm 1 mps 734 mmHg 94%
    03:00 -4°C° 0 mm 1 mps 734 mmHg 94%
    04:00 -4°C° 0 mm 1 mps 734 mmHg 93%
    05:00 -4°C° 0 mm 1 mps 734 mmHg 93%
    06:00 -4°C° 0 mm 1 mps 735 mmHg 93%
    07:00 -6°C° 0 mm 1 mps 735 mmHg 93%
    08:00 -6°C° 0 mm 1 mps 735 mmHg 92%
    09:00 -4°C° 0 mm 1 mps 735 mmHg 91%
    10:00 -3°C° 0 mm 1 mps 735 mmHg 90%
    11:00 -2°C° 0 mm 1 mps 736 mmHg 89%
    12:00 -2°C° 0 mm 1 mps 736 mmHg 88%
    13:00 -1°C° 0 mm 1 mps 736 mmHg 88%
    14:00 -1°C° 0 mm 1 mps 736 mmHg 88%
    15:00 -2°C° 0 mm 1 mps 736 mmHg 90%
    16:00 -4°C° 0 mm 1 mps 736 mmHg 92%
    17:00 -6°C° 0 mm 1 mps 736 mmHg 94%
    18:00 -6°C° 0 mm 1 mps 736 mmHg 94%
    19:00 -7°C° 0 mm 0 mps 736 mmHg 94%
    20:00 -7°C° 0 mm 0 mps 736 mmHg 94%
    21:00 -7°C° 0 mm 0 mps 736 mmHg 94%
    22:00 -8°C° 0 mm 0 mps 736 mmHg 94%
    23:00 -8°C° 0 mm 0 mps 736 mmHg 93%

    Tomorrow, 19 December, Wednesday

    Time Temperature Precipitation Wind Pressure Humidity
    00:00 -8°C° 0 mm 0 mps 737 mmHg 93%
    01:00 -8°C° 0 mm 0 mps 737 mmHg 92%
    02:00 -8°C° 0 mm 1 mps 737 mmHg 92%
    03:00 -8°C° 0 mm 1 mps 737 mmHg 92%
    04:00 -8°C° 0 mm 1 mps 737 mmHg 91%
    05:00 -8°C° 0 mm 1 mps 736 mmHg 91%
    06:00 -8°C° 0 mm 1 mps 736 mmHg 90%
    07:00 -8°C° 0 mm 1 mps 736 mmHg 90%
    08:00 -8°C° 0 mm 1 mps 736 mmHg 89%
    09:00 -7°C° 0 mm 1 mps 736 mmHg 87%
    10:00 -4°C° 0 mm 1 mps 737 mmHg 85%
    11:00 -5°C° 0 mm 2 mps 737 mmHg 83%
    12:00 -4°C° 0 mm 2 mps 737 mmHg 84%
    13:00 -4°C° 0 mm 2 mps 736 mmHg 84%
    14:00 -3°C° 0 mm 2 mps 736 mmHg 84%
    15:00 -4°C° 0 mm 2 mps 736 mmHg 86%
    16:00 -5°C° 0 mm 2 mps 736 mmHg 89%
    17:00 -6°C° 0 mm 2 mps 735 mmHg 92%
    18:00 -7°C° 0 mm 2 mps 735 mmHg 90%
    19:00 -7°C° 0 mm 2 mps 735 mmHg 88%
    20:00 -7°C° 0 mm 2 mps 735 mmHg 87%
    21:00 -8°C° 0 mm 3 mps 735 mmHg 85%
    22:00 -8°C° 0 mm 3 mps 735 mmHg 84%
    23:00 -8°C° 0 mm 3 mps 735 mmHg 82%

    Day after tomorrow, 20 December, Thursday

    Time Temperature Precipitation Wind Pressure Humidity
    00:00 -8°C° 0 mm 3 mps 735 mmHg 82%
    01:00 -8°C° 0 mm 3 mps 735 mmHg 81%
    02:00 -8°C° 0 mm 3 mps 734 mmHg 81%
    03:00 -7°C° 0 mm 2 mps 734 mmHg 81%
    04:00 -7°C° 0 mm 2 mps 734 mmHg 81%
    05:00 -7°C° 0 mm 2 mps 733 mmHg 81%
    06:00 -7°C° 0 mm 2 mps 733 mmHg 81%
    07:00 -7°C° 0 mm 2 mps 733 mmHg 81%
    08:00 -7°C° 0 mm 2 mps 733 mmHg 82%
    09:00 -6°C° 0 mm 2 mps 733 mmHg 82%
    10:00 -5°C° 0 mm 2 mps 733 mmHg 82%
    11:00 -4°C° 0 mm 2 mps 733 mmHg 83%
    12:00 -3°C° 0 mm 2 mps 733 mmHg 84%
    13:00 -3°C° 0 mm 2 mps 733 mmHg 84%
    14:00 -2°C° 0 mm 2 mps 732 mmHg 85%
    15:00 -3°C° 0 mm 2 mps 732 mmHg 86%
    16:00 -4°C° 0 mm 2 mps 732 mmHg 87%
    17:00 -4°C° 0 mm 2 mps 732 mmHg 89%
    18:00 -4°C° 0.1 mm 2 mps 732 mmHg 89%
    19:00 -4°C° 0.1 mm 2 mps 732 mmHg 89%
    20:00 -4°C° 0.1 mm 2 mps 732 mmHg 90%
    21:00 -4°C° 0 mm 2 mps 732 mmHg 89%
    22:00 -4°C° 0 mm 2 mps 733 mmHg 89%
    23:00 -4°C° 0 mm 2 mps 733 mmHg 89%

    21 December, Friday

    Time Temperature Precipitation Wind Pressure Humidity
    00:00 -4°C° 0 mm 2 mps 733 mmHg 89%
    01:00 -4°C° 0 mm 2 mps 733 mmHg 89%
    02:00 -4°C° 0 mm 2 mps 733 mmHg 89%
    03:00 -4°C° 0 mm 2 mps 733 mmHg 89%
    04:00 -4°C° 0 mm 2 mps 733 mmHg 89%
    05:00 -3°C° 0 mm 2 mps 732 mmHg 89%
    06:00 -3°C° 0.1 mm 2 mps 733 mmHg 89%
    07:00 -3°C° 0.1 mm 2 mps 733 mmHg 89%
    08:00 -2°C° 0.1 mm 2 mps 733 mmHg 89%
    09:00 -2°C° 0 mm 3 mps 733 mmHg 89%
    10:00 -1°C° 0 mm 3 mps 733 mmHg 89%
    11:00 0°C° 0 mm 3 mps 733 mmHg 88%
    12:00 0°C° 0 mm 3 mps 732 mmHg 88%
    13:00 0°C° 0 mm 3 mps 732 mmHg 88%
    14:00 +1°C° 0 mm 3 mps 732 mmHg 87%
    15:00 0°C° 0.1 mm 3 mps 731 mmHg 87%
    16:00 0°C° 0.1 mm 3 mps 731 mmHg 87%
    17:00 -1°C° 0.1 mm 3 mps 731 mmHg 87%
    18:00 -1°C° 0.1 mm 3 mps 731 mmHg 87%
    19:00 -1°C° 0.1 mm 3 mps 730 mmHg 86%
    20:00 0°C° 0.1 mm 3 mps 730 mmHg 86%
    21:00 -1°C° 0.2 mm 4 mps 729 mmHg 86%
    22:00 -1°C° 0.2 mm 4 mps 729 mmHg 86%
    23:00 -1°C° 0.2 mm 4 mps 728 mmHg 86%

    22 December, Saturday

    Time Temperature Precipitation Wind Pressure Humidity
    00:00 -1°C° 0.3 mm 4 mps 727 mmHg 86%
    01:00 0°C° 0.3 mm 5 mps 727 mmHg 86%
    02:00 0°C° 0.3 mm 5 mps 726 mmHg 87%
    03:00 0°C° 0.3 mm 5 mps 725 mmHg 87%
    04:00 0°C° 0.3 mm 5 mps 725 mmHg 88%
    05:00 0°C° 0.3 mm 5 mps 725 mmHg 88%
    06:00 0°C° 0.3 mm 5 mps 725 mmHg 89%
    07:00 +1°C° 0.3 mm 5 mps 725 mmHg 89%
    08:00 +1°C° 0.3 mm 6 mps 725 mmHg 90%
    09:00 +1°C° 0.1 mm 6 mps 725 mmHg 90%
    10:00 +1°C° 0.1 mm 6 mps 725 mmHg 90%
    11:00 +2°C° 0.1 mm 6 mps 725 mmHg 90%
    12:00 +2°C° 0 mm 5 mps 725 mmHg 89%
    13:00 +2°C° 0 mm 5 mps 725 mmHg 88%
    14:00 +2°C° 0 mm 5 mps 725 mmHg 88%
    15:00 +2°C° 0 mm 5 mps 725 mmHg 87%
    16:00 +2°C° 0 mm 5 mps 725 mmHg 86%
    17:00 +2°C° 0 mm 5 mps 725 mmHg 86%
    18:00 +2°C° 0.1 mm 5 mps 724 mmHg 86%
    19:00 +2°C° 0.1 mm 5 mps 724 mmHg 86%
    20:00 +2°C° 0.1 mm 5 mps 723 mmHg 87%
    21:00 +2°C° 1.1 mm 6 mps 723 mmHg 87%
    22:00 +2°C° 1.1 mm 6 mps 723 mmHg 87%
    23:00 +2°C° 1.1 mm 6 mps 723 mmHg 86%

    23 December, Sunday

    Time Temperature Precipitation Wind Pressure Humidity
    00:00 +2°C° 0.1 mm 6 mps 723 mmHg 87%
    01:00 +2°C° 0.1 mm 6 mps 723 mmHg 87%
    02:00 +2°C° 0.1 mm 6 mps 723 mmHg 88%
    03:00 +2°C° 0.3 mm 6 mps 723 mmHg 88%
    04:00 +2°C° 0.3 mm 6 mps 723 mmHg 89%
    05:00 +2°C° 0.3 mm 5 mps 724 mmHg 89%
    06:00 +1°C° 0.1 mm 5 mps 724 mmHg 89%
    07:00 +1°C° 0.1 mm 5 mps 724 mmHg 89%
    08:00 +1°C° 0.1 mm 5 mps 725 mmHg 89%
    09:00 +1°C° 0.1 mm 5 mps 725 mmHg 88%
    10:00 +1°C° 0.1 mm 5 mps 726 mmHg 87%
    11:00 +2°C° 0.1 mm 6 mps 726 mmHg 87%
    12:00 +2°C° 0.1 mm 6 mps 726 mmHg 86%
    13:00 +2°C° 0.1 mm 6 mps 726 mmHg 85%
    14:00 +2°C° 0.1 mm 6 mps 726 mmHg 84%
    15:00 +2°C° 0.2 mm 6 mps 726 mmHg 85%
    16:00 +1°C° 0.2 mm 5 mps 726 mmHg 86%
    17:00 +1°C° 0.2 mm 5 mps 726 mmHg 87%
    18:00 +1°C° 0.2 mm 5 mps 727 mmHg 87%
    19:00 +1°C° 0.2 mm 5 mps 727 mmHg 87%
    20:00 +1°C° 0.2 mm 5 mps 727 mmHg 87%
    21:00 +1°C° 0.2 mm 5 mps 727 mmHg 87%
    22:00 +1°C° 0.2 mm 5 mps 727 mmHg 87%
    23:00 +1°C° 0.2 mm 5 mps 727 mmHg 88%
    Show more